Starlink 31449

operational
NORAD ID: 58966 Int'l Des: 2024-031 Owner: SPXS Country: US Constellation: starlink
LEOCIRCULAR

Starlink 31449について

説明を読み込み中...

リアルタイム位置

3D地球を読み込み中...

次回通過

高度履歴

Altitude vs Time

uPlot chart will show altitude changes over time

軌道要素

1 58966U 24031B 25354.17484084 -.00000443 00000-0 -28350-5 0 9995
2 58966 53.1621 305.7147 0001318 97.6866 262.4285 15.30195047104364
Epoch: Dec 20, 2025 • Age: 16 hours

現在のステータス

高度 478.6 km
速度 7.63 km/s
衛星直下点 42.76°N, 43.31°E
打ち上げ日 Feb 15, 2024
運用期間 1.8 years
タイプ internet

技術仕様

分類 Payload
質量 730.00 kg
乾燥質量 700.00 kg
総質量 730.00 kg
長さ 0.30 m
直径 4.10 m
スパン 29.00 m
形状 Box + pan
製造者 SPXS
バスタイプ Starlink V2M
フェーズステータス In Orbit
所有者/国 SPXS/US

大規模コンステレーション

Loading constellations...